Location: B�di�
(14.6834°N, 3.1047°W)
Time: 18:03:31
(UTC+00:00)

Cosmos 1356 Rocket - Pass Details

Date: 24 January 2020
Orbit: 543 x 598 km, 81.2° (Epoch: 23 February)

Event Time Altitude Azimuth Distance (km) Brightness Sun altitude
Rises 19:33:43 0° 350° (N) 2,739 6.8 -20.8°
Reaches altitude 10° 19:35:53 10° 347° (NNW) 1,852 6.0 -21.3°
Maximum altitude 19:39:56 67° 265° (W) 619 3.7 -22.3°
Drops below altitude 10° 19:44:04 10° 183° (S) 1,883 6.2 -23.2°
Sets 19:46:17 0° 180° (S) 2,790 7.1 -23.7°
